Location: Bakov nad Jizerou
(50.4784°N, 14.9394°E)
Time: 19:46:22
(UTC+00:00)

Cosmos 1703 - Pass Details

Date: 26 October 2021
Orbit: 521 x 539 km, 82.5° (Epoch: 01 December)

Event Time Altitude Azimuth Distance (km) Brightness Sun altitude
Rises 16:16:03 0° 349° (NNW) 2,690 6.8 -5.3°
Reaches altitude 10° 16:18:12 10° 348° (NNW) 1,791 5.9 -5.7°
Maximum altitude 16:22:09 83° 261° (W) 539 3.4 -6.3°
Drops below altitude 10° 16:26:01 10° 174° (S) 1,765 6.0 -6.9°
Sets 16:28:08 0° 173° (S) 2,646 6.9 -7.2°
